Mersa Matruh, Egypt

2:00 PM EET on January 20, 2018 (GMT +0200)
Mersa Matruh

Weather History for HEMM - October, 2013

Change the Weather History Date:

Wednesday, October 2, 2013

  Actual Average Record
Temperature  
Mean Temperature 79 °F -  
Max Temperature 84 °F 78 °F 91 °F (2005)
Min Temperature 74 °F 64 °F 64 °F (1997)
Cooling Degree Days 14    
Growing Degree Days 29 (Base 50)    
Moisture  
Dew Point 67 °F    
Average Humidity 67    
Maximum Humidity 83    
Minimum Humidity 50    
Precipitation  
Precipitation 0.00 in 0.02 in - ()
Sea Level Pressure  
Sea Level Pressure 29.80 in    
Wind  
Wind Speed 12 mph ()    
Max Wind Speed 18 mph    
Max Gust Speed -    
Visibility 6.1 miles    
Events      
Averages and records for this station are not official NWS values.
T = Trace of Precipitation, MM = Missing Value Source: Averaged Metar Reports

Daily Weather History Graph

Daily Weather History Graph

Search for Another Location

Airport or City:

Trip Planner

Search our weather history database for the weather conditions in past years. The results will help you decide how hot, cold, wet, or windy it might be!

Date:

Astronomy

Oct. 02, 2013 Rise Set
Actual Time 6:05 AM EET 5:54 PM EET
Civil Twilight 5:41 AM EET 6:19 PM EET
Nautical Twilight 5:13 AM EET 6:47 PM EET
Astronomical Twilight 4:44 AM EET 7:15 PM EET
Moon 3:27 AM EET (10/2) 4:13 PM EET (10/2)
Length of Visible Light 12h 37m
Length of Day
11h 49m
Waning Crescent, 7% of the Moon is Illuminated
Oct 2
Waning Crescent
Oct 5
New
Oct 12
First Quarter
Oct 19
Full
Oct 27
Last Quarter

Hourly Weather History & Observations

Time (EET) Temp. Heat Index Dew Point Humidity Pressure Visibility Wind Dir Wind Speed Gust Speed Precip Events Conditions
12:00 AM 80.6 °F 83.2 °F 68.0 °F 65% 29.74 in - South 11.5 mph - N/A   Clear
1:00 AM 78.8 °F - 68.0 °F 69% 29.74 in - South 11.5 mph - N/A   Clear
2:00 AM 78 °F - 67 °F 62% 29.76 in 6 mi NNW 16.1 mph - -  
2:00 AM 77.0 °F - 68.0 °F 74% 29.74 in - NNW 16.1 mph - N/A   Clear
3:00 AM 77.0 °F - 68.0 °F 74% 29.74 in - NNW 15.0 mph - N/A   Clear
4:00 AM 75.2 °F - 68.0 °F 78% 29.74 in - NW 16.1 mph - N/A   Clear
5:00 AM 75.2 °F - 69.8 °F 83% 29.74 in - NNW 16.1 mph - N/A   Clear
6:00 AM 77.0 °F - 69.8 °F 78% 29.74 in - NNW 11.5 mph - N/A   Clear
7:00 AM 77.0 °F - 68.0 °F 74% 29.77 in 6.2 mi WNW 9.2 mph - N/A   Scattered Clouds
8:00 AM 78 °F - 68 °F 63% 29.80 in 6 mi West 11.5 mph - -   Partly Cloudy
8:00 AM 77.0 °F - 68.0 °F 74% 29.74 in 6.2 mi West 11.5 mph - N/A   Scattered Clouds
9:00 AM 78.8 °F - 68.0 °F 69% 29.80 in 6.2 mi NW 11.5 mph - N/A   Scattered Clouds
10:00 AM 82.4 °F 84.6 °F 66.2 °F 58% 29.80 in 6.2 mi NW 18.4 mph - N/A   Scattered Clouds
11:00 AM 82.4 °F 84.6 °F 66.2 °F 58% 29.83 in 6.2 mi NNW 13.8 mph - N/A   Scattered Clouds
12:00 PM 82.4 °F 86.3 °F 69.8 °F 66% 29.83 in 6.2 mi NNW 16.1 mph - N/A   Scattered Clouds
1:00 PM 82.4 °F 86.3 °F 69.8 °F 66% 29.80 in 6.2 mi NW 17.3 mph - N/A   Scattered Clouds
2:00 PM 82 °F - 66 °F 50% 29.82 in 6 mi NNW 17.3 mph - -   Partly Cloudy
2:00 PM 82.4 °F 84.6 °F 66.2 °F 58% 29.80 in 6.2 mi NNW 17.3 mph - N/A   Scattered Clouds
3:00 PM 82.4 °F 84.6 °F 66.2 °F 58% 29.80 in 6.2 mi NNW 17.3 mph - N/A   Scattered Clouds
4:00 PM 80.6 °F 82.7 °F 66.2 °F 61% 29.80 in 6.2 mi NNW 16.1 mph - N/A   Scattered Clouds
5:00 PM 80.6 °F 82.7 °F 66.2 °F 61% 29.83 in 6.2 mi NW 17.3 mph - N/A   Scattered Clouds
6:00 PM 80.6 °F 82.7 °F 66.2 °F 61% 29.83 in - NW 16.1 mph - N/A   Clear
7:00 PM 77.0 °F - 66.2 °F 69% 29.83 in - NNW 13.8 mph - N/A   Clear
8:00 PM 77 °F - 67 °F 65% 29.86 in 6 mi NW 11.5 mph - -  
8:00 PM 77.0 °F - 68.0 °F 74% 29.86 in - NW 11.5 mph - N/A   Clear
9:00 PM 77.0 °F - 68.0 °F 74% 29.86 in - WNW 13.8 mph - N/A   Clear
10:00 PM 75.2 °F - 66.2 °F 73% 29.86 in - NW 11.5 mph - N/A   Clear
11:00 PM 75.2 °F - 66.2 °F 73% 29.89 in - NW 11.5 mph - N/A   Clear